Weather in Aloja

Latvia     57°46′19″N   24°53′11″E
temp.,
°C
wind,
m/s
gust,
m/s
humid.,
%
clouds,
%
prec.,
mm/h
press.,
hPa
HPBL,
m
7 may, fri
fri700:00+4sw61197100 1.9 998978
03:00+4sw61197100 3.1 9981081
06:00+4sw5997100 1.2 999895
09:00+5sw4795100 1.4 1001658
12:00+7wsw4683100 0.6 1003987
15:00+6wsw358983 1.1 1004617
18:00+8sw3468100 0.4 10031223
21:00+4nw3595100 0.9 1004205
8 may, sat
sat800:00+1w2698100 0.0 1005168
03:000w279710 0.0 1005168
06:00+2wnw5996100 0.1 1006695
09:00+4wnw588084 0.2 1007987
12:00+5wnw6865100 0.1 10081332
15:00+8wnw684388 0.1 10101959
18:00+8wnw57442 0.0 10111487
21:00+3w37710 0.0 1013169
9 may, sun
sun900:00+1wsw23830 0.0 101563
03:000sw37915 0.0 1015135
06:000ssw398295 0.0 1017187
09:00+6ssw5970100 0.0 1017542
12:00+10sw6953100 0.0 10181296
15:00+12sw5742100 0.0 10181876
18:00+11sw5958100 0.0 10181495
21:00+7sse51492100 2.4 1016873
10 may, mon
mon1000:00+9ssw51584100 0.0 1016671
03:00+10ssw51483100 0.0 1017505
06:00+10s51384100 0.0 1018414
09:00+14s5136629 0.0 1019580
12:00+19s610487 0.0 10191084
15:00+21s6104463 0.0 10191432
18:00+19s6115399 0.0 10191251
21:00+16s6136597 0.0 1019840
11 may, tue
tue1100:00+14s5156818 0.0 1020690
03:00+12sse5157496 0.0 1020543
06:00+11s51575100 0.0 1020523
09:00+15s61365100 0.0 1020598
12:00+19s694999 0.0 1021977
15:00+22s69395 0.0 10201442
18:00+21sse510474 0.0 10191252
21:00+15sse411604 0.0 1020398